Regional Weather Roundup
Issued by NWS

Home | Current Version | Previous Version | Graphics & Text | Print | Product List | Glossary On
Versions: 1 2 3 4 5 6 7 8 9 10 11 12 13 14 15 16 17 18 19 20 21 22 23 24 25 26 27 28 29 30 31 32 33 34 35 36 37 38 39 40 41 42 43 44 45 46 47 48 49 50
000
ASUS43 KTOP 010059
RWRKS

WEATHER ROUNDUP FOR KANSAS
NATIONAL WEATHER SERVICE GOODLAND KS
800 PM CDT FRI JUL 31 2015

NOTE:  "FAIR" INDICATES FEW OR NO CLOUDS BELOW 12,000 FEET WITH NO
SIGNIFICANT WEATHER AND/OR OBSTRUCTIONS TO VISIBILITY.

KSZ001>006-013>018-027>032-041>047-010200-
NORTHWEST KANSAS

CITY           SKY/WX    TMP DP  RH WIND       PRES   REMARKS
GOODLAND       SUNNY     84  60  44 S7        30.15R
HAYS           CLEAR     90  61  37 S8        30.08R
HILL CITY      PTCLDY    89  63  41 SE7       30.07S
RUSSELL        CLEAR     88  63  43 S8        30.06S
$$

KSZ061>065-074>080-084>089-010200-
SOUTHWEST KANSAS

CITY           SKY/WX    TMP DP  RH WIND       PRES   REMARKS
DODGE CITY     MOCLDY    84  60  44 SE8       30.11R
ELKHART          N/A     76  63  64 SE8         N/A
GARDEN CITY    MOCLDY    85  61  44 SE7       30.12R
GREAT BEND     CLEAR     88  64  45 SE8       30.07S
LIBERAL        MOCLDY    81  63  54 SE9       30.14R
$$

KSZ066>073-081>083-090>101-010200-
SOUTHEAST KANSAS

CITY           SKY/WX    TMP DP  RH WIND       PRES   REMARKS
CHANUTE        CLEAR     85  72  65 S6        30.06S
COFFEYVILLE    PTCLDY    84  71  65 S5        30.05S
HUTCHINSON     CLEAR     86  69  56 SE6       30.07S
MEDICINE LODGE   N/A     85  71  63 SE5       30.04F
NEWTON         CLEAR     84  66  54 SE5       30.10F
PARSONS        PTCLDY    85  75  72 CALM      30.07R
WICHITA INTL   PTCLDY    86  69  56 SE8       30.06S
WICHITA JABRA  CLEAR     86  70  58 E3        30.06F
WINFIELD       MOCLDY    84  75  74 S9        30.07S
$$

KSZ007>012-019>026-033>040-048>060-102>105-010200-
NORTHEAST KANSAS

CITY           SKY/WX    TMP DP  RH WIND       PRES   REMARKS
CONCORDIA      CLEAR     86  68  54 SE6       30.05S
EMPORIA        CLEAR     85  70  60 E5        30.06S
LAWRENCE       CLEAR     85  75  72 CALM      30.04F
MANHATTAN      CLEAR     87  71  58 S5        30.04S
OLATHE IND     CLEAR     85  67  54 NW5       30.06F
OLATHE EXE     CLEAR     85  65  51 NW3       30.05F
SALINA         CLEAR     89  68  49 S8        30.05S
TOPEKA BILLARD CLEAR     87  69  54 S5        30.04F
TOPEKA FORBES  CLEAR     88  69  53 SE5       30.05F
$$


USA.gov is the U.S. government's official web portal to all federal, state and local government web resources and services.